Regional Weather Roundup
Issued by NWS

Home | Current Version | Previous Version | Graphics & Text | Print | Product List | Glossary On
Versions: 1 2 3 4 5 6 7 8 9 10 11 12 13 14 15 16 17 18 19 20 21 22 23 24 25 26 27 28 29 30 31 32 33 34 35 36 37 38 39 40 41 42 43 44 45 46 47 48 49 50
000
ASUS43 KIND 220809
RWRIN

WEATHER ROUNDUP FOR INDIANA
NATIONAL WEATHER SERVICE INDIANAPOLIS IN
300 AM EST WED FEB 22 2017

NOTE: "FAIR" INDICATES FEW OR NO CLOUDS BELOW 12,000 FEET WITH NO
SIGNIFICANT WEATHER AND/OR OBSTRUCTIONS TO VISIBILITY.

* - STATION DOES NOT REPORT WEATHER SUCH AS PRECIPITATION OR FOG.

+ - STATION NOT QUALITY CONTROLLED BY THE NATIONAL WEATHER SERVICE.
    USE DATA WITH CAUTION...ESPECIALLY DEWPOINT AND RELATIVE
    HUMIDITY OBSERVATIONS.

INZ001>003-010>013-019-020-220900-
NORTHWEST INDIANA

CITY           SKY/WX    TMP DP  RH WIND       PRES   REMARKS
GARY /AIRPORT/ CLOUDY    52  52 100 CALM      29.86S FOG
KNOX *+        CLOUDY    46  43  87 CALM      29.87S
LA PORTE +     CLOUDY    46  46 100 CALM      29.87S FOG
MICHIGAN CITY+ CLOUDY    52  52 100 CALM      29.87R
MONTICELLO +   CLOUDY    52  49  90 S6        29.87S
RENSSELAER +   CLOUDY    48  46  93 S5        29.87S FOG
VALPARAISO     CLOUDY    51  50  96 S3        29.87S FOG

$$

LMZ046-743>745-220900-
SOUTHERN LAKE MICHIGAN

STATION/POSITION TIME  TEMP    WIND        PRES    WAVE
                       AIR SEA DIR/SP/G            HT
                 (UTC) (F)     (DEG/KT/KT) (MB)    (FT)
BURNS HARBOR     0803   51     220/  3/  8 1011.5
MICHIGAN CITY    0740   53     170/  8/  9   N/A

$$

INZ004-005-014>016-021>024-220900-
NORTH CENTRAL INDIANA

CITY           SKY/WX    TMP DP  RH WIND       PRES   REMARKS
GOSHEN         MOCLDY    48  45  89 CALM      29.87S
LOGANSPORT +   CLOUDY    52  50  93 S7        29.88S
PERU/GRISSOM   CLOUDY    52  52 100 S5        29.87S
ROCHESTER +    CLOUDY    54  50  87 S3        29.87F
SOUTH BEND     FOG       42  42 100 CALM      29.87F VSB 1
WARSAW +       PTCLDY    52  46  82 CALM      29.87S

$$

INZ006>009-017-018-025>027-220900-
NORTHEAST INDIANA

CITY           SKY/WX    TMP DP  RH WIND       PRES   REMARKS
ANGOLA *+      CLOUDY    45  45 100 CALM      29.87F VSB 3/4
AUBURN +       CLOUDY    52  48  87 CALM      29.89R
FORT WAYNE     CLOUDY    53  50  89 S9        29.89F
HUNTINGTON +   CLOUDY    53  52  95 S5        29.89R
KENDALLVILLE + PTCLDY    50  47  91 SW6       29.88S

$$

INZ028-029-035-036-043>045-051>053-220900-
WEST CENTRAL INDIANA

CITY           SKY/WX    TMP DP  RH WIND       PRES   REMARKS
GREENCASTLE +  FOG       50  50 100 CALM      29.89F VSB 1/4
LAFAYETTE      CLOUDY    53  51  93 S5        29.87S
TERRE HAUTE    CLOUDY    52  50  93 CALM      29.88F FOG

$$

INZ030>032-037>040-046>048-054>057-064-065-220900-
CENTRAL INDIANA

CITY           SKY/WX    TMP DP  RH WIND       PRES   REMARKS
CP ATTERBURY + CLOUDY    55  54  94 S3        29.91S
FRANKFORT +    MOCLDY    51  50  97 S6        29.90S FOG
GREENWOOD *+   CLOUDY    55  55 100 S7        29.90S
INDIANAPOLIS   CLOUDY    53  52  96 SE6       29.89F FOG
-EAGLE CREEK   CLOUDY    54  52  93 SE3       29.88F FOG
KOKOMO +       CLOUDY    49  48  97 S6        29.89F FOG
MARION +       CLOUDY    51  51 100 S7        29.90S FOG
MT COMFORT *+  CLOUDY    54  54 100 S5        29.90F
SHELBYVILLE    CLOUDY    56  53  90 SE7       29.89F FOG
ZIONSVILLE +   CLOUDY    50  50  99 SE5       29.89F FOG

$$

INZ033-034-041-042-049-050-058-059-220900-
EAST CENTRAL INDIANA

CITY           SKY/WX    TMP DP  RH WIND       PRES   REMARKS
MUNCIE         CLOUDY    58  53  84 SW5       29.91R

$$

INZ060-061-067>069-081>083-085>088-220900-
SOUTHWEST INDIANA

CITY           SKY/WX    TMP DP  RH WIND       PRES   REMARKS
EVANSVILLE     CLOUDY    58  54  86 S5        29.89F
HUNTINGBURG *+ CLOUDY    57  54  89 S6        29.90S
WASHINGTON +   CLOUDY    52  50  93 CALM      29.90R FOG

$$

INZ062-063-066-070>080-084-089>092-220900-
SOUTH CENTRAL AND SOUTHEAST INDIANA

CITY           SKY/WX    TMP DP  RH WIND       PRES   REMARKS
BEDFORD +      CLOUDY   N/A N/A N/A SE3       29.90S
BLOOMINGTON    CLOUDY    56  53  90 SE6       29.89F FOG
MADISON *+     CLOUDY    55  54  94 SE5       29.93F
NORTH VERNON + CLOUDY   N/A N/A N/A S6        29.92F
SEYMOUR +      CLOUDY    57  57 100 SE6       29.90F FOG

$$




USA.gov is the U.S. government's official web portal to all federal, state and local government web resources and services.